SCP
1 1 1 1 1 1 1 1 0 0 0 0 0 0 0 0 0 0 0 1 1 1 1 1 1 1 1 1 1 1 1 1 1 1 1 0 0 0 0 0 0 0 0
1 1 1 1 1 1 1 1 1 0 0 0 0 0 0 0 0 0 0 1 1 1 1 1 1 1 1 1 1 1 1 1 1 1 1 1 0 0 0 0 0 0 0
1 1 1 1 1 1 1 1 1 1 0 0 0 0 0 0 0 0 0 1 1 1 1 1 1 1 1 2 2 2 2 1 1 1 1 1 1 0 0 0 0 0 0
2 2 1 1 1 1 1 1 1 1 1 1 1 1 1 1 1 1 1 1 1 1 1 2 2 2 2 2 2 2 2 2 2 1 1 1 1 1 0 0 0 0 0
2 3 2 2 1 1 1 1 1 1 1 1 1 1 1 1 1 1 1 1 1 1 1 1 2 2 2 2 2 2 2 2 2 2 1 1 1 1 1 0 0 0 0
3 3 3 3 2 2 2 2 1 1 1 1 1 1 1 1 1 1 1 1 1 1 1 1 1 2 4 6 4 2 2 2 2 2 2 2 2 1 1 1 0 0 0
3 4 5 4 3 2 2 2 2 1 1 1 1 1 1 1 1 1 1 1 0 0 0 1 1 2 6 10 6 2 2 2 2 2 3 2 2 1 1 1 0 0 0
2 4 6 6 4 3 2 2 1 1 1 1 1 1 0 0 0 0 0 0 0 0 0 1 1 2 4 6 5 3 2 2 2 3 3 3 2 1 1 1 1 0 0
2 3 5 6 4 2 2 1 1 1 1 1 1 1 0 0 0 0 0 0 0 0 1 1 1 1 2 2 2 2 2 2 2 2 3 2 2 1 1 1 1 0 0
1 2 3 3 2 1 1 1 1 0 0 1 1 1 1 1 1 0 0 0 0 1 1 1 1 1 1 1 2 1 1 1 2 2 2 2 2 1 1 1 1 1 1
1 1 1 1 1 1 1 1 1 0 1 1 1 1 1 1 1 0 0 0 0 1 1 1 1 1 1 1 1 1 1 1 1 1 1 1 1 1 1 1 1 1 1
1 1 1 1 1 1 1 1 0 0 0 1 1 1 1 0 0 0 0 0 0 1 1 1 0 0 1 1 2 1 1 1 1 1 1 1 0 0 0 0 1 1 1
1 1 1 1 1 1 1 1 0 0 0 0 0 0 0 0 0 0 0 0 0 1 1 1 1 1 1 2 2 2 1 1 0 0 0 0 0 0 0 0 0 1 1
1 1 1 0 0 0 0 0 0 0 0 0 0 0 0 0 0 0 0 0 0 0 0 1 1 1 1 2 2 2 1 1 0 0 0 0 0 0 0 0 0 0 1
0 0 0 0 0 0 0 0 0 0 0 0 0 0 0 0 0 0 0 0 0 0 0 0 0 0 1 1 1 1 2 1 0 0 0 0 0 0 0 0 0 0 0
0 0 0 0 0 0 0 0 0 0 0 0 0 0 0 0 0 0 0 0 0 0 0 0 0 0 0 0 1 1 1 1 1 0 0 0 0 0 0 0 0 0 0
0 0 0 0 0 0 0 0 0 0 0 0 0 0 0 0 0 0 0 0 0 0 0 0 0 0 0 0 1 1 1 1 1 1 0 0 0 0 0 0 0 0 0
0 0 0 0 0 0 0 0 0 0 0 0 0 0 0 0 0 0 0 0 0 0 0 0 0 1 1 1 0 1 1 1 1 1 0 0 0 0 0 0 0 0 0
0 0 0 0 0 0 0 0 0 0 0 0 0 0 0 0 0 0 0 0 0 0 0 0 0 1 1 0 0 0 1 1 1 0 0 0 0 0 0 0 0 0 0
0 0 0 0 0 0 0 0 0 0 0 0 0 0 0 0 0 0 0 0 0 0 0 0 0 0 0 0 0 0 0 1 1 1 0 0 0 0 0 0 0 0 0
0 0 0 0 0 0 0 0 0 0 0 0 0 0 0 0 0 0 0 0 0 0 0 0 0 0 0 0 0 0 0 0 1 1 1 1 0 0 0 0 0 0 0
0 0 0 0 0 0 0 0 0 0 0 0 0 0 0 0 0 0 0 0 0 0 0 0 0 0 0 0 0 0 0 0 0 1 1 1 0 0 0 0 0 0 0
0 0 0 0 0 0 0 0 0 0 0 0 0 0 0 0 0 0 0 0 0 0 0 0 0 0 0 0 0 0 0 0 0 0 0 0 0 0 0 0 0 0 0
0 0 0 0 0 0 0 0 0 0 0 0 0 0 0 0 0 0 0 0 0 0 0 0 0 0 0 0 0 0 0 0 0 0 0 0 0 0 0 0 0 0 0
0 0 0 0 0 0 0 0 0 0 0 0 0 0 0 0 0 0 0 0 0 0 0 0 0 0 0 0 0 0 0 0 0 0 0 0 0 0 0 0 0 0 0
0 0 0 0 0 0 0 0 0 0 0 0 0 0 0 0 0 0 0 0 0 0 0 0 0 0 0 0 0 0 0 0 0 0 0 0 0 0 0 0 0 0 0
Wind_Speed
7 7 7 6 6 6 6 6 6 7 8 10 10 10 10 9 8 7 5 9 13 15 16 16 15 15 15 14 13 14 13 14 14 14 15 15 15 15 16 16 17 18 17
8 8 7 8 8 8 7 6 6 7 7 8 9 10 9 9 9 7 9 9 13 13 14 15 15 15 16 15 15 15 14 14 13 13 14 14 13 14 14 15 16 17 18
10 9 9 8 8 7 7 7 8 8 8 9 10 10 8 9 10 9 9 9 9 15 16 15 15 16 17 17 17 17 15 14 14 13 13 13 12 12 12 13 14 15 17
12 10 10 10 10 8 8 9 8 8 8 8 8 8 7 8 8 9 10 10 9 8 13 17 16 16 17 18 18 18 16 14 15 14 14 14 13 13 13 12 13 14 16
10 8 10 11 12 10 11 10 9 9 8 9 9 7 6 7 9 10 10 9 10 10 9 11 15 15 17 18 19 19 18 16 16 16 16 15 15 14 14 13 12 13 15
5 4 7 11 12 11 10 9 9 8 8 8 8 8 9 8 9 11 11 11 12 13 12 11 10 12 17 17 18 19 19 17 16 17 17 16 16 15 15 15 14 14 15
4 4 5 7 9 10 9 8 8 10 9 7 9 11 12 12 12 11 11 11 12 13 14 12 9 9 10 15 14 16 18 17 16 16 17 17 17 16 16 16 15 14 15
4 6 7 5 4 7 9 8 8 9 9 7 8 10 11 11 11 8 9 9 11 10 12 12 12 11 8 7 7 12 14 16 17 17 17 17 17 16 16 16 16 15 15
3 5 9 9 6 6 6 6 7 9 9 8 5 7 8 8 6 6 8 8 8 8 9 9 9 10 10 8 6 8 11 12 14 16 17 17 16 15 15 16 17 17 17
11 7 1 5 1 4 5 5 5 7 7 7 6 7 10 9 6 8 7 8 6 7 6 6 6 8 8 7 8 7 6 10 11 12 14 14 14 14 14 16 18 19 19
10 8 6 6 6 5 4 6 4 5 5 6 5 6 7 7 8 7 8 9 6 7 6 6 4 5 7 6 7 8 10 9 8 7 8 9 9 8 10 13 17 19 21
6 7 7 7 6 5 5 6 4 7 7 6 6 5 5 5 6 6 7 8 9 7 3 6 6 6 6 6 7 3 7 6 6 5 5 5 9 12 13 16 19 21 22
4 6 8 7 6 5 5 5 6 8 6 6 7 6 3 5 5 6 5 5 7 6 5 4 4 4 3 3 3 1 9 9 7 5 5 9 12 15 17 19 21 22 22
3 4 5 7 7 7 6 5 5 4 4 5 6 5 3 3 2 3 2 3 7 5 3 1 1 1 2 2 3 3 5 9 5 5 7 10 13 16 17 17 17 19 20
6 5 3 4 5 4 5 5 3 4 4 4 4 3 3 2 2 3 2 4 5 6 3 2 1 2 2 2 3 4 4 6 4 5 7 10 12 14 15 15 16 16 16
4 4 4 4 4 3 2 4 3 3 4 1 2 2 1 2 3 4 4 4 5 4 4 3 5 7 6 5 3 3 2 3 4 5 6 8 9 12 14 11 11 14 15
5 5 5 4 4 5 5 4 4 3 2 1 2 2 2 2 2 3 3 3 3 4 6 6 4 4 4 4 4 5 2 3 3 6 5 6 7 8 8 5 6 9 11
5 5 5 4 4 5 5 5 5 5 4 3 3 2 3 3 2 3 4 4 5 5 5 8 6 6 6 7 7 7 3 3 2 4 5 5 5 5 4 3 2 6 10
5 5 5 5 5 5 5 5 6 6 6 6 5 5 4 3 5 5 6 5 5 3 4 4 5 6 7 8 9 6 5 4 3 6 7 7 4 3 1 4 7 8 8
7 7 7 7 7 6 6 7 7 7 6 6 5 5 5 5 7 6 5 5 6 5 5 4 6 6 6 7 9 8 9 6 3 4 3 2 4 5 4 6 8 10 11
8 8 8 8 8 7 7 7 7 7 7 8 7 7 7 6 6 7 7 8 8 8 6 4 6 7 8 9 8 5 7 7 6 4 5 3 2 4 7 4 3 4 7
7 9 9 9 8 7 7 8 6 7 8 8 8 7 7 5 7 8 7 7 8 8 9 9 9 9 10 9 9 7 6 6 5 4 2 2 3 3 4 4 7 7 7
7 7 8 9 9 7 6 7 4 7 8 8 7 7 8 9 7 7 4 3 4 3 3 6 8 9 9 10 10 8 7 5 4 5 4 4 5 4 4 3 2 7 9
6 6 7 8 9 6 3 5 5 8 8 8 7 7 7 9 10 9 7 7 6 6 6 6 7 8 8 9 10 7 3 3 4 3 4 4 5 5 7 5 5 2 5
5 4 6 8 9 7 3 3 4 7 7 7 7 7 7 9 12 14 8 6 6 7 2 2 3 6 8 7 8 10 9 8 7 8 4 1 2 3 5 4 5 4 1
6 4 6 8 9 8 3 4 6 4 6 6 6 7 9 9 11 13 10 8 8 8 8 6 4 4 5 4 7 10 9 8 7 7 8 6 3 3 2 4 4 3 2
Wind_Direction
247 244 250 259 262 263 250 246 266 274 281 271 265 267 272 271 266 264 273 222 213 223 233 237 238 236 234 235 229 227 227 227 225 225 227 230 232 233 233 231 231 228 219
254 260 252 250 253 261 275 290 286 285 277 276 280 277 280 285 280 263 262 239 202 212 222 228 233 236 231 229 227 228 226 223 219 218 221 223 225 230 233 233 232 230 222
249 253 265 263 258 256 266 270 263 257 259 260 254 257 260 255 254 255 261 259 222 208 212 219 225 228 227 226 227 228 223 215 216 217 217 218 219 225 230 232 231 230 223
255 260 264 267 273 269 260 258 262 267 267 268 273 275 269 270 267 260 252 249 251 236 209 210 213 220 221 221 225 225 223 216 215 215 214 216 217 220 226 230 231 229 223
279 280 280 282 282 282 270 264 264 267 277 273 271 275 280 273 272 265 262 256 252 245 239 206 200 212 218 217 220 224 223 217 213 215 214 216 218 220 225 227 229 228 222
294 296 267 273 279 273 281 285 281 278 264 269 278 283 272 256 258 258 254 248 247 250 248 240 214 208 205 216 222 225 227 223 214 213 215 217 220 221 221 226 225 223 221
213 185 205 245 269 265 268 278 274 269 271 284 287 280 275 269 258 259 258 260 261 261 262 254 240 236 207 204 221 231 234 232 224 214 213 216 220 221 218 220 223 218 216
252 224 170 173 226 259 260 261 271 279 279 269 274 295 281 270 248 235 252 261 269 274 270 253 232 233 244 240 228 216 231 235 230 220 214 215 220 221 221 218 219 215 210
236 255 220 139 169 233 250 256 266 275 283 281 270 268 282 287 323 263 249 250 261 272 269 260 242 232 231 237 229 215 221 233 233 224 221 219 221 221 222 220 216 214 207
167 131 52 81 170 257 264 267 262 281 283 284 270 252 261 280 282 287 266 258 240 253 257 259 247 242 243 232 239 252 209 219 229 234 238 231 225 223 224 223 219 215 207
196 172 171 192 190 217 243 257 267 272 282 286 289 280 281 275 261 251 274 279 258 244 233 234 236 245 249 245 246 233 197 212 227 246 257 254 245 241 235 235 232 225 212
182 191 198 202 194 194 222 243 253 256 261 278 289 283 270 259 256 252 263 284 292 294 276 238 223 230 240 247 250 171 168 200 207 209 217 247 265 263 256 250 245 236 222
186 189 198 189 188 187 205 238 240 250 256 267 275 276 272 260 275 288 292 296 293 301 298 328 346 296 285 306 345 223 184 179 181 198 245 258 259 259 253 247 244 238 229
124 150 199 183 183 188 199 219 235 245 250 251 253 272 277 268 293 285 302 302 297 293 298 325 233 244 343 9 354 311 190 173 200 236 253 260 262 261 254 245 241 233 227
124 125 165 172 164 182 199 207 221 222 234 252 263 269 292 313 265 277 266 270 301 306 308 13 309 170 276 291 17 303 236 156 218 256 265 267 269 271 267 251 237 225 219
137 149 133 109 102 119 179 226 203 200 218 266 9 35 49 320 315 318 325 317 294 299 292 287 303 332 326 303 303 315 305 196 202 244 274 283 279 273 270 258 240 218 208
164 156 133 137 155 156 157 174 182 170 169 96 60 45 37 331 6 331 316 308 275 286 285 287 312 323 322 321 307 285 216 239 219 217 236 265 275 282 294 286 241 202 187
175 169 159 163 167 148 138 154 155 125 107 86 61 54 37 34 11 8 349 354 346 333 314 307 338 348 344 335 320 295 275 249 223 186 204 239 257 265 310 326 213 163 160
148 140 139 133 127 119 124 108 91 80 72 69 69 67 52 37 27 21 14 360 8 5 29 342 347 358 352 2 337 324 293 269 212 173 204 213 211 232 182 89 81 83 114
129 126 124 122 119 116 103 95 88 80 78 85 91 92 75 42 24 358 17 21 24 36 58 37 33 20 8 17 10 354 331 314 269 181 214 221 177 181 166 109 89 78 81
134 136 133 128 119 108 89 88 89 87 91 93 87 77 64 60 44 5 11 23 15 22 33 24 42 33 19 12 16 349 324 317 285 194 175 201 194 196 163 156 124 110 117
138 139 133 119 102 86 71 77 87 92 89 91 94 93 91 88 82 67 49 42 31 22 25 18 28 26 22 8 8 15 357 345 355 352 115 92 326 258 194 174 163 149 146
126 136 131 120 112 113 107 94 82 90 88 84 78 67 63 49 32 72 116 126 80 57 351 345 20 11 4 359 347 0 34 21 4 1 24 44 4 338 1 23 142 160 156
116 131 135 128 121 111 97 106 112 105 97 89 81 72 61 50 17 354 35 42 34 40 28 11 9 351 350 343 329 312 301 140 127 41 35 39 1 21 354 4 356 123 144
125 137 139 135 130 136 171 226 220 132 119 106 81 53 46 50 7 349 4 12 14 5 25 210 242 267 272 274 334 353 353 349 49 58 47 74 39 25 350 359 356 13 79
150 170 150 133 133 143 179 283 276 149 146 147 129 105 68 40 16 4 5 9 7 355 336 324 304 293 330 8 27 10 5 7 13 42 13 353 29 40 0 359 358 340 340